カタログに戻る

STARLINK-2531

運用中通信VLEO
NORAD 48483·PAYLOAD·🇺🇸 United States

打ち上げ May 9, 2021 から Cape Canaveral Space Force Station

Loading…

次のパス (今後24時間)

TLE

最新Source: CelesTrak SupGP

元期: Sep 14, 2026, 21:09 UTC

1 48483C 21040BH  26257.88173611  .00038078  00000+0  12241-2 0  2575
2 48483  53.1608  33.6329 0001098  77.6300 116.8953 15.31692483    15

AllMySatでSTARLINK-2531をリアルタイム追跡

Download on the App Store